Home   Weather   Kugluktuk   Past weeks

Flag for Canada Past Weather in Kugluktuk, Nunavut, Canada — Yesterday and Last 2 Weeks

Now
0 °F

Light snow. Overcast.


Feels Like: -15 °F
Forecast: -1 / 11 °F
Wind: 8 mph from Southwest

Location: Coppermine

Current Time: Apr 26, 2017 at 10:18:45 am

Latest Report: Apr 26, 2017 at 9:00 am


Visibility: 12 mi

Pressure: 29.95 "Hg

Humidity: 84%

Dew Point: -4 °F

Location of KugluktukLocation

Past Weather in Kugluktuk — Graph

°F

Kugluktuk Temperature Yesterday

Maximum temperature yesterday: 18 °F (at 6:00 am)
Minimum temperature yesterday: -2 °F (at 1:00 am)
Average temperature yesterday: 11 °F

High & Low Weather Summary for the Past Weeks

 TemperatureHumidityPressure
High18 °F (Apr 25, 6:00 am)85% (Apr 13, 4:00 pm)30.78 "Hg (Apr 13, 4:00 pm)
Low-17 °F (Apr 11, 9:00 am)65% (Apr 19, 12:00 pm)29.79 "Hg (Apr 25, 10:00 am)
Average-2 °F77%30.35 "Hg
* Reported Apr 11 9:00 am — Apr 26 9:00 am, Kugluktuk, Weather by CustomWeather, © 2017

Note: Actual official high and low records may vary slightly from our data, if they occured in-between our weather recording intervals... More about our weather records

Advertising

Kugluktuk Weather History for the Previous 24 Hours

Scroll right to see more
 ConditionsComfort  
Time TempWeatherWind HumidityBarometerVisibility
9:00 am
Wed, Apr 26
0 °FLight snow. Overcast.8 mph84%29.95 "Hg12 mi
8:00 am-2 °FLight snow. Overcast.8 mph84%29.95 "Hg12 mi
7:00 am-2 °FLight snow. Overcast.8 mph77%29.95 "Hg12 mi
6:00 am-4 °FLight snow. Overcast.9 mph77%29.95 "Hg12 mi
5:00 am-4 °FLight snow. Overcast.10 mph77%29.95 "Hg10 mi
4:00 am-4 °FLight snow. Passing clouds.12 mph77%29.94 "Hg12 mi
3:00 am-4 °FLight snow. Partly cloudy.10 mph84%29.94 "Hg12 mi
2:00 am1 °FLight snow. Passing clouds.10 mph85%29.93 "Hg10 mi
1:00 am1 °FLight snow. Passing clouds.13 mph78%29.93 "Hg12 mi
12:00 am1 °FLight snow. Passing clouds.10 mph85%29.92 "Hg10 mi
11:00 pm
Tue, Apr 25
3 °FLight snow. Broken clouds.6 mph78%29.92 "Hg12 mi
10:54 pm3 °FLight snow. Broken clouds.7 mph78%29.92 "Hg12 mi
10:00 pm5 °FScattered clouds.7 mph78%29.92 "Hg12 mi
9:00 pm7 °FScattered clouds.6 mph78%29.90 "Hg15 mi
8:00 pm9 °FPassing clouds.7 mph78%29.90 "Hg15 mi
7:00 pm12 °FLight snow. Scattered clouds.12 mph79%29.88 "Hg15 mi
6:00 pm14 °FLight snow. Broken clouds.10 mph79%29.87 "Hg12 mi
5:00 pm16 °FLight snow. Partly sunny.10 mph79%29.86 "Hg12 mi
4:00 pm16 °FLight snow. Broken clouds.6 mph79%29.85 "Hg15 mi
3:43 pm16 °FLight snow. Broken clouds.2 mph79%29.84 "Hg15 mi
3:00 pm16 °FBroken clouds.6 mph79%29.84 "Hg15 mi
2:00 pm16 °FPartly sunny.7 mph73%29.82 "Hg15 mi
1:00 pm14 °FPartly sunny.13 mph79%29.81 "Hg15 mi
12:00 pm14 °FPartly sunny.13 mph73%29.80 "Hg15 mi
11:00 am14 °FPartly sunny.16 mph73%29.79 "Hg15 mi
10:00 am12 °FPartly sunny.16 mph73%29.79 "Hg15 mi
Weather by CustomWeather, © 2017

See weather overviewHow to use our weather pages